Location: Rancho Del Sol Observatory
(38.7214°N, 120.6350°W)
Time: 11:44:24
(UTC-08:00)

A-11 Canister half - All Passes

Search period start: 21 January 2020 00:00
Search period end: 31 January 2020 00:00
Orbit: 1525 x 1684 km, 47.3° (Epoch: 21 January)

Date Brightness Start Highest point End Pass type
(mag) Time Alt. Az. Time Alt. Az. Time Alt. Az.
21 Jan - 00:10:20 10° WNW 00:20:09 83° NNE 00:30:16 10° ESE night (unlit)
21 Jan - 02:15:55 10° WNW 02:24:43 38° SW 02:33:43 10° SSE night (unlit)
21 Jan - 15:33:17 10° SSE 15:37:32 14° ESE 15:41:48 10° E daylight
21 Jan - 17:31:54 10° SW 17:40:56 58° SE 17:50:12 10° ENE visible
21 Jan - 19:36:38 10° WSW 19:45:59 65° NNW 19:55:39 10° ENE visible
21 Jan - 21:43:04 10° WNW 21:52:22 52° N 22:01:58 10° E visible
21 Jan - 23:48:42 10° WNW 23:58:29 81° NNE 00:08:33 10° ESE night (unlit)
22 Jan - 01:54:12 10° WNW 02:03:07 40° SW 02:12:14 10° SSE night (unlit)
22 Jan - 15:12:26 10° SE 15:15:59 13° ESE 15:19:34 10° E daylight
22 Jan - 17:10:23 10° SSW 17:19:20 55° SE 17:28:31 10° ENE daylight
22 Jan - 19:14:58 10° WSW 19:24:18 66° NNW 19:33:57 10° ENE visible
22 Jan - 21:21:24 10° WNW 21:30:38 52° N 21:40:13 10° E visible
22 Jan - 23:27:02 10° WNW 23:36:48 79° NNE 23:46:52 10° ESE visible
23 Jan - 01:32:30 10° WNW 01:41:30 42° SW 01:50:43 10° SSE night (unlit)
23 Jan - 14:51:47 10° SE 14:54:27 11° ESE 14:57:08 10° ESE daylight
23 Jan - 16:48:51 10° SSW 16:57:45 52° SE 17:06:49 10° ENE daylight
23 Jan - 18:53:18 10° WSW 19:02:37 68° NNW 19:12:16 10° ENE visible
23 Jan - 20:59:42 10° WNW 21:08:56 51° N 21:18:28 10° ENE visible
23 Jan - 23:05:24 10° WNW 23:15:07 76° NNE 23:25:09 10° ESE visible
24 Jan - 01:10:48 10° WNW 01:19:54 44° SW 01:29:12 10° SSE night (unlit)
24 Jan - 14:31:47 10° SE 14:32:55 10° ESE 14:34:04 10° ESE daylight
24 Jan - 16:27:21 10° SSW 16:36:09 50° SE 16:45:07 10° ENE daylight
24 Jan - 18:31:38 10° WSW 18:40:58 70° NNW 18:50:35 10° ENE visible
24 Jan - 20:38:01 10° WNW 20:47:13 51° N 20:56:43 10° ENE visible
24 Jan - 22:43:46 10° WNW 22:53:26 74° NNE 23:03:25 10° ESE visible
25 Jan - 00:49:07 10° WNW 00:58:16 47° SW 01:07:41 10° SSE night (unlit)
25 Jan - 16:05:52 10° SSW 16:14:34 47° SE 16:23:25 10° ENE daylight
25 Jan - 18:09:58 10° WSW 18:19:17 72° NNW 18:28:54 10° ENE visible
25 Jan - 20:16:20 10° WNW 20:25:30 51° N 20:34:58 10° ENE visible
25 Jan - 22:22:07 10° WNW 22:31:45 72° NNE 22:41:43 10° ESE visible
26 Jan - 00:27:26 10° WNW 00:36:39 49° SW 00:46:08 10° SSE night (unlit)
26 Jan - 02:38:01 10° WSW 02:40:05 11° WSW 02:42:09 10° SW night (unlit)
26 Jan - 15:44:23 10° SSW 15:52:59 45° SE 16:01:43 10° ENE daylight
26 Jan - 17:48:18 10° WSW 17:57:38 74° NNW 18:07:14 10° ENE visible
26 Jan - 19:54:39 10° WNW 20:03:47 51° N 20:13:14 10° ENE visible
26 Jan - 22:00:29 10° WNW 22:10:04 70° NNE 22:19:58 10° ESE visible
27 Jan - 00:05:46 10° WNW 00:15:02 51° SW 00:24:35 10° SSE night (unlit)
27 Jan - 02:15:19 10° WSW 02:18:31 12° WSW 02:21:45 10° SW night (unlit)
27 Jan - 15:22:54 10° SSW 15:31:24 42° SE 15:40:01 10° ENE daylight
27 Jan - 17:26:39 10° WSW 17:35:59 76° NNW 17:45:33 10° ENE visible
27 Jan - 19:32:57 10° WNW 19:42:05 51° N 19:51:29 10° ENE visible
27 Jan - 21:38:50 10° WNW 21:48:23 68° NNE 21:58:16 10° ESE visible
27 Jan - 23:44:05 10° WNW 23:53:25 54° SW 00:03:02 10° SSE visible
28 Jan - 01:52:58 10° W 01:56:57 13° WSW 02:01:00 10° SSW night (unlit)
28 Jan - 15:01:27 10° SSW 15:09:50 40° SE 15:18:18 10° ENE daylight
28 Jan - 17:05:01 10° WSW 17:14:19 78° NNW 17:23:53 10° ENE daylight
28 Jan - 19:11:16 10° WNW 19:20:22 51° N 19:29:45 10° ENE visible
28 Jan - 21:17:12 10° WNW 21:26:42 66° NNE 21:36:31 10° ESE visible
28 Jan - 23:22:26 10° WNW 23:31:47 56° SW 23:41:26 10° SSE visible
29 Jan - 01:30:47 10° W 01:35:23 14° WSW 01:40:04 10° SSW night (unlit)
29 Jan - 14:40:00 10° SSW 14:48:15 38° SE 14:56:36 10° ENE daylight
29 Jan - 16:43:21 10° WSW 16:52:40 81° NNW 17:02:13 10° ENE daylight
29 Jan - 18:49:34 10° W 18:58:40 51° N 19:08:02 10° ENE visible
29 Jan - 20:55:33 10° WNW 21:05:01 65° NNE 21:14:47 10° ESE visible
29 Jan - 23:00:47 10° WNW 23:10:10 59° SW 23:19:52 10° SE visible
30 Jan - 01:08:42 10° W 01:13:49 16° WSW 01:19:02 10° SSW night (unlit)
30 Jan - 14:18:33 10° SSW 14:26:41 36° SE 14:34:52 10° ENE daylight
30 Jan - 16:21:43 10° WSW 16:31:02 83° NNW 16:40:33 10° ENE daylight
30 Jan - 18:27:53 10° W 18:36:58 52° N 18:46:18 10° ENE visible
30 Jan - 20:33:54 10° WNW 20:43:20 63° NNE 20:53:03 10° E visible
30 Jan - 22:39:07 10° WNW 22:48:32 62° SW 22:58:16 10° SE visible
